Showing default

COSMOS 1562, 15001

Orbit data source: Space-Track

COSMOS 1562, 15001 is a payload satellite owned by GUKOS (CIS) in LEO that was launched on Mon, 28 May 1984 UTC via a KOSMOS 11K65M launch vehicle from the Plesetsk Missile And Space Complex (PKMTR). Payload-class satellites include a variety of spacecraft equipped with specific instruments for various scientific and technological missions. These include communications satellites like Starlink; space stations such as the ISS; scientific satellites like the Hubble; Earth observation satellites from companies like Planet Labs, Umbra, and HawkEye 360; GPS; miniature CubeSats for education and research; and military/defense satellites.

Loading next visibility...
Identifier
15001, 1984-052D
Orbit
LEO
Last TLE update
17 hours ago
Origin
Manufacturer
NPO PM
Mission
Defense Communications
Bus & Motor
STRELA-1 11F625, Unknown motor
Mass
60 kg wet, 60 kg dry
Launch date (UTC)
1984-05-28 (41 years ago)
Launch vehicle
KOSMOS 11K65M
Launch site
Plesetsk Missile And Space Complex (PKMTR)
Object type
Payload
Rocket body
Debris
Shape & HBR
Sphere, 0.8 m
Radar Cross Section
0.588 m², Medium (>0.1 m² and < 1m²)

Expand to show TLE details & history

TLE from 17 hours ago
0 COSMOS 1562
1 15001U 84052D   25183.40639447 -.00000021  00000-0 -30021-4 0  9997
2 15001  74.0129  61.4803 0015453 287.1191 246.2893 12.49959029875072
Epoch: 2025-07-02T09:45Z
TLE epoch observation values (Epoch: 2025-07-02T09:45:12.482Z)
Latitude
6.42647°
Longitude
172.65014°
Altitude
1,471.334 km
Speed
7.126 km/s
True Right ascension
15h 58m 33s
True Declination
6° 23' 31"
Sunlit
Object was in full shadow at epoch
Visualization orbit readout
Latitude
-24.12178°
Longitude
-179.14238°
Altitude
1,471.28 km
Speed
7.128 km/s
Apparent Right ascension
18h 55m 43s
Apparent Declination
-65° 31' 12"
Sunlit
Object is in full shadow
Visualization observer readout
Local Sidereal Time
14:57:41
Azimuth
156.796° SSE
Elevation
-25.007°
Doppler factor
1
Orbital elements
Apogee altitude
1,474.619 km
Perigee altitude
1,450.387 km
Semi-major axis
7,840.64 km
Eccentricity
0.00155
Inclination
74.0129°
RAAN
61.4803°
Arg. of periapsis
287.1191°
True anomaly
Unknown
Mean anomaly
246.2893°
Eccentric anomaly
Unknown
Mean motion
3.12619 °/min
Orbital period
115.16 mins
BSTAR
-0.000030021
Loading maneuver chart data...
Loading SW <> Apogee altitude chart data...
Loading historical data...
Loading historical data...
Loading historical data...
Loading historical data...
Loading historical data...
Loading historical data...
Loading historical data...

COSMOS 1562 Visibility forecast

Observer location: undefined°, undefined°

Span
Click to sort rows by Start time (UTC) header in descending order
Start Az.
Max El. time (UTC)
Max El. Az.
Max El.
End time (UTC)
End Az.
13 mins2025-07-03 04:40:32.239Z319.259° NNW2025-07-03 04:47:32.239Z264.123° W25.334°2025-07-03 04:53:32.239Z215.487° SW
12 mins2025-07-03 15:40:32.239Z143.137° SSE2025-07-03 15:45:32.239Z99.613° ESE26.721°2025-07-03 15:52:32.239Z40.941° NE
16 mins2025-07-03 17:35:32.239Z217.591° SW2025-07-03 17:42:32.239Z282.281° WNW40.296°2025-07-03 17:51:32.239Z12.639° NNE
6 mins2025-07-03 19:40:32.239Z302.011° NW2025-07-03 19:42:32.239Z316.46° NNW13.016°2025-07-03 19:46:32.239Z344.487° N
14 mins2025-07-04 01:45:32.239Z1.097° NNE2025-07-04 01:51:32.239Z53.133° ENE29.095°2025-07-04 01:59:32.239Z120.161° SE
|